owner,sensor,date,latitude,longitude,air_temperature,qcFlag 
COMPS,ioos:station:USF.COMPS:C10:1,2009-10-01T16:20:00Z,27.1690,-82.9260,24.35,1111122 
COMPS,ioos:station:USF.COMPS:C10:1,2009-10-01T16:40:00Z,27.1690,-82.9260,23.51,1111122 
COMPS,ioos:station:USF.COMPS:C10:1,2009-10-01T17:00:00Z,27.1690,-82.9260,23.67,1111122 
COMPS,ioos:station:USF.COMPS:C10:1,2009-10-01T17:20:00Z,27.1690,-82.9260,23.63,1111122 
COMPS,ioos:station:USF.COMPS:C10:1,2009-10-01T17:40:00Z,27.1690,-82.9260,23.71,1111122 
COMPS,ioos:station:USF.COMPS:C10:1,2009-10-01T18:00:00Z,27.1690,-82.9260,23.7,1111122 
COMPS,ioos:station:USF.COMPS:C10:1,2009-10-01T18:20:00Z,27.1690,-82.9260,23.78,1111122 
COMPS,ioos:station:USF.COMPS:C10:1,2009-10-01T18:40:00Z,27.1690,-82.9260,23.83,1111122 
COMPS,ioos:station:USF.COMPS:C10:1,2009-10-01T19:00:00Z,27.1690,-82.9260,23.79,1111122 
COMPS,ioos:station:USF.COMPS:C10:1,2009-10-01T19:20:00Z,27.1690,-82.9260,23.83,1111122 
COMPS,ioos:station:USF.COMPS:C10:1,2009-10-01T19:40:00Z,27.1690,-82.9260,23.92,1111122 
COMPS,ioos:station:USF.COMPS:C10:1,2009-10-01T20:00:00Z,27.1690,-82.9260,23.92,1111122 
COMPS,ioos:station:USF.COMPS:C10:1,2009-10-01T20:20:00Z,27.1690,-82.9260,23.87,1111122 
COMPS,ioos:station:USF.COMPS:C10:1,2009-10-01T20:40:00Z,27.1690,-82.9260,24.0,1111122 
COMPS,ioos:station:USF.COMPS:C10:1,2009-10-01T21:00:00Z,27.1690,-82.9260,24.03,1111122 
COMPS,ioos:station:USF.COMPS:C10:1,2009-10-01T21:20:00Z,27.1690,-82.9260,24.17,1111122 
COMPS,ioos:station:USF.COMPS:C10:1,2009-10-01T21:40:00Z,27.1690,-82.9260,24.09,1111122 
COMPS,ioos:station:USF.COMPS:C10:1,2009-10-01T22:00:00Z,27.1690,-82.9260,24.25,1111122 
COMPS,ioos:station:USF.COMPS:C10:1,2009-10-01T22:20:00Z,27.1690,-82.9260,24.29,1111122 
COMPS,ioos:station:USF.COMPS:C10:1,2009-10-01T22:40:00Z,27.1690,-82.9260,24.16,1111122 
COMPS,ioos:station:USF.COMPS:C10:1,2009-10-01T23:00:00Z,27.1690,-82.9260,24.09,1111122 
COMPS,ioos:station:USF.COMPS:C10:1,2009-10-01T23:20:00Z,27.1690,-82.9260,24.09,1111122 
COMPS,ioos:station:USF.COMPS:C10:1,2009-10-01T23:40:00Z,27.1690,-82.9260,24.11,1111122 
COMPS,ioos:station:USF.COMPS:C10:1,2009-10-02T00:00:00Z,27.1690,-82.9260,24.02,1111122 
COMPS,ioos:station:USF.COMPS:C10:1,2009-10-02T00:20:00Z,27.1690,-82.9260,23.98,1111122 
COMPS,ioos:station:USF.COMPS:C10:1,2009-10-02T00:40:00Z,27.1690,-82.9260,24.18,1111122 
COMPS,ioos:station:USF.COMPS:C10:1,2009-10-02T01:00:00Z,27.1690,-82.9260,24.21,1111122 
COMPS,ioos:station:USF.COMPS:C10:1,2009-10-02T02:20:00Z,27.1690,-82.9260,24.34,1111122 
COMPS,ioos:station:USF.COMPS:C10:1,2009-10-02T02:40:00Z,27.1690,-82.9260,24.25,1111122 
COMPS,ioos:station:USF.COMPS:C10:1,2009-10-02T03:00:00Z,27.1690,-82.9260,24.28,1111122 
COMPS,ioos:station:USF.COMPS:C10:1,2009-10-02T03:20:00Z,27.1690,-82.9260,24.27,1111122 
COMPS,ioos:station:USF.COMPS:C10:1,2009-10-02T03:40:00Z,27.1690,-82.9260,24.31,1111122 
COMPS,ioos:station:USF.COMPS:C10:1,2009-10-02T04:00:00Z,27.1690,-82.9260,24.32,1111122 
COMPS,ioos:station:USF.COMPS:C10:1,2009-10-02T04:20:00Z,27.1690,-82.9260,24.27,1111122 
COMPS,ioos:station:USF.COMPS:C10:1,2009-10-02T04:40:00Z,27.1690,-82.9260,24.27,1111122 
COMPS,ioos:station:USF.COMPS:C10:1,2009-10-02T05:00:00Z,27.1690,-82.9260,24.25,1111122 
COMPS,ioos:station:USF.COMPS:C10:1,2009-10-02T05:20:00Z,27.1690,-82.9260,24.18,1111122 
COMPS,ioos:station:USF.COMPS:C10:1,2009-10-02T05:40:00Z,27.1690,-82.9260,24.16,1111122 
COMPS,ioos:station:USF.COMPS:C10:1,2009-10-02T06:00:00Z,27.1690,-82.9260,24.12,1111122 
COMPS,ioos:station:USF.COMPS:C10:1,2009-10-02T06:20:00Z,27.1690,-82.9260,24.02,1111122 
COMPS,ioos:station:USF.COMPS:C10:1,2009-10-02T06:40:00Z,27.1690,-82.9260,24.19,1111122 
COMPS,ioos:station:USF.COMPS:C10:1,2009-10-02T07:00:00Z,27.1690,-82.9260,24.25,1111122 
COMPS,ioos:station:USF.COMPS:C10:1,2009-10-02T07:20:00Z,27.1690,-82.9260,24.1,1111122 
COMPS,ioos:station:USF.COMPS:C10:1,2009-10-02T07:40:00Z,27.1690,-82.9260,24.1,1111122 
COMPS,ioos:station:USF.COMPS:C10:1,2009-10-02T08:00:00Z,27.1690,-82.9260,24.17,1111122 
COMPS,ioos:station:USF.COMPS:C10:1,2009-10-02T08:20:00Z,27.1690,-82.9260,24.08,1111122 
COMPS,ioos:station:USF.COMPS:C10:1,2009-10-02T08:40:00Z,27.1690,-82.9260,24.09,1111122 
COMPS,ioos:station:USF.COMPS:C10:1,2009-10-02T09:00:00Z,27.1690,-82.9260,24.15,1111122 
COMPS,ioos:station:USF.COMPS:C10:1,2009-10-02T09:20:00Z,27.1690,-82.9260,24.11,1111122 
COMPS,ioos:station:USF.COMPS:C10:1,2009-10-02T09:40:00Z,27.1690,-82.9260,24.21,1111122 
COMPS,ioos:station:USF.COMPS:C10:1,2009-10-02T10:00:00Z,27.1690,-82.9260,24.24,1111122 
COMPS,ioos:station:USF.COMPS:C10:1,2009-10-02T10:20:00Z,27.1690,-82.9260,24.15,1111122 
COMPS,ioos:station:USF.COMPS:C10:1,2009-10-02T10:40:00Z,27.1690,-82.9260,24.09,1111122 
COMPS,ioos:station:USF.COMPS:C10:1,2009-10-02T11:00:00Z,27.1690,-82.9260,24.14,1111122 
COMPS,ioos:station:USF.COMPS:C10:1,2009-10-02T11:20:00Z,27.1690,-82.9260,24.15,1111122 
COMPS,ioos:station:USF.COMPS:C10:1,2009-10-02T11:40:00Z,27.1690,-82.9260,24.2,1111122 
COMPS,ioos:station:USF.COMPS:C10:1,2009-10-02T12:00:00Z,27.1690,-82.9260,24.23,1111122 
COMPS,ioos:station:USF.COMPS:C10:1,2009-10-02T12:20:00Z,27.1690,-82.9260,24.27,1111122 
COMPS,ioos:station:USF.COMPS:C10:1,2009-10-02T12:40:00Z,27.1690,-82.9260,24.34,1111122 
COMPS,ioos:station:USF.COMPS:C10:1,2009-10-02T13:00:00Z,27.1690,-82.9260,24.47,1111122 
COMPS,ioos:station:USF.COMPS:C10:1,2009-10-02T13:20:00Z,27.1690,-82.9260,24.58,1111122 
COMPS,ioos:station:USF.COMPS:C10:1,2009-10-02T13:40:00Z,27.1690,-82.9260,24.58,1111122 
COMPS,ioos:station:USF.COMPS:C10:1,2009-10-02T14:00:00Z,27.1690,-82.9260,24.58,1111122 
COMPS,ioos:station:USF.COMPS:C10:1,2009-10-02T14:20:00Z,27.1690,-82.9260,24.66,1111122 
COMPS,ioos:station:USF.COMPS:C10:1,2009-10-02T14:40:00Z,27.1690,-82.9260,24.81,1111122 
COMPS,ioos:station:USF.COMPS:C10:1,2009-10-02T15:00:00Z,27.1690,-82.9260,24.9,1111122 
COMPS,ioos:station:USF.COMPS:C10:1,2009-10-02T15:20:00Z,27.1690,-82.9260,24.99,1111122 
COMPS,ioos:station:USF.COMPS:C10:1,2009-10-02T15:40:00Z,27.1690,-82.9260,25.18,1111122 
COMPS,ioos:station:USF.COMPS:C10:1,2009-10-02T16:00:00Z,27.1690,-82.9260,25.25,1111122 
COMPS,ioos:station:USF.COMPS:C10:1,2009-10-02T16:20:00Z,27.1690,-82.9260,25.33,1111122 
COMPS,ioos:station:USF.COMPS:C10:1,2009-10-02T16:40:00Z,27.1690,-82.9260,25.47,1111122 
COMPS,ioos:station:USF.COMPS:C10:1,2009-10-02T17:00:00Z,27.1690,-82.9260,25.48,1111122 
COMPS,ioos:station:USF.COMPS:C10:1,2009-10-02T17:20:00Z,27.1690,-82.9260,25.67,1111122 
COMPS,ioos:station:USF.COMPS:C10:1,2009-10-02T17:40:00Z,27.1690,-82.9260,25.63,1111122 
COMPS,ioos:station:USF.COMPS:C10:1,2009-10-02T18:00:00Z,27.1690,-82.9260,25.76,1111122 
COMPS,ioos:station:USF.COMPS:C10:1,2009-10-02T18:20:00Z,27.1690,-82.9260,25.78,1111122 
COMPS,ioos:station:USF.COMPS:C10:1,2009-10-02T18:40:00Z,27.1690,-82.9260,25.93,1111122 
COMPS,ioos:station:USF.COMPS:C10:1,2009-10-02T19:00:00Z,27.1690,-82.9260,26.05,1111122 
COMPS,ioos:station:USF.COMPS:C10:1,2009-10-02T19:20:00Z,27.1690,-82.9260,26.16,1111122 
COMPS,ioos:station:USF.COMPS:C10:1,2009-10-02T19:40:00Z,27.1690,-82.9260,26.14,1111122 
COMPS,ioos:station:USF.COMPS:C10:1,2009-10-02T20:00:00Z,27.1690,-82.9260,26.2,1111122 
COMPS,ioos:station:USF.COMPS:C10:1,2009-10-02T20:20:00Z,27.1690,-82.9260,26.35,1111122 
COMPS,ioos:station:USF.COMPS:C10:1,2009-10-02T20:40:00Z,27.1690,-82.9260,26.41,1111122 
COMPS,ioos:station:USF.COMPS:C10:1,2009-10-02T21:00:00Z,27.1690,-82.9260,26.03,1111122 
COMPS,ioos:station:USF.COMPS:C10:1,2009-10-02T21:20:00Z,27.1690,-82.9260,26.06,1111122 
COMPS,ioos:station:USF.COMPS:C10:1,2009-10-02T21:40:00Z,27.1690,-82.9260,26.08,1111122 
COMPS,ioos:station:USF.COMPS:C10:1,2009-10-02T22:00:00Z,27.1690,-82.9260,26.23,1111122 
COMPS,ioos:station:USF.COMPS:C10:1,2009-10-02T22:20:00Z,27.1690,-82.9260,26.38,1111122 
COMPS,ioos:station:USF.COMPS:C10:1,2009-10-02T22:40:00Z,27.1690,-82.9260,26.14,1111122 
COMPS,ioos:station:USF.COMPS:C10:1,2009-10-02T23:00:00Z,27.1690,-82.9260,26.26,1111122 
COMPS,ioos:station:USF.COMPS:C10:1,2009-10-02T23:20:00Z,27.1690,-82.9260,26.15,1111122 
COMPS,ioos:station:USF.COMPS:C10:1,2009-10-02T23:40:00Z,27.1690,-82.9260,26.21,1111122 
COMPS,ioos:station:USF.COMPS:C10:1,2009-10-03T00:00:00Z,27.1690,-82.9260,26.3,1111122 
COMPS,ioos:station:USF.COMPS:C10:1,2009-10-03T00:20:00Z,27.1690,-82.9260,26.31,1111122 
COMPS,ioos:station:USF.COMPS:C10:1,2009-10-03T00:40:00Z,27.1690,-82.9260,26.34,1111122 
COMPS,ioos:station:USF.COMPS:C10:1,2009-10-03T01:00:00Z,27.1690,-82.9260,26.31,1111122 
COMPS,ioos:station:USF.COMPS:C10:1,2009-10-03T01:20:00Z,27.1690,-82.9260,26.43,1111122 
COMPS,ioos:station:USF.COMPS:C10:1,2009-10-03T01:40:00Z,27.1690,-82.9260,26.47,1111122 
COMPS,ioos:station:USF.COMPS:C10:1,2009-10-03T02:00:00Z,27.1690,-82.9260,26.48,1111122 
COMPS,ioos:station:USF.COMPS:C10:1,2009-10-03T02:20:00Z,27.1690,-82.9260,26.49,1111122 
COMPS,ioos:station:USF.COMPS:C10:1,2009-10-03T02:40:00Z,27.1690,-82.9260,26.41,1111122 
COMPS,ioos:station:USF.COMPS:C10:1,2009-10-03T03:00:00Z,27.1690,-82.9260,26.4,1111122 
COMPS,ioos:station:USF.COMPS:C10:1,2009-10-03T03:20:00Z,27.1690,-82.9260,26.45,1111122 
COMPS,ioos:station:USF.COMPS:C10:1,2009-10-03T03:40:00Z,27.1690,-82.9260,26.44,1111122 
COMPS,ioos:station:USF.COMPS:C10:1,2009-10-03T04:00:00Z,27.1690,-82.9260,26.36,1111122 
COMPS,ioos:station:USF.COMPS:C10:1,2009-10-03T04:20:00Z,27.1690,-82.9260,26.38,1111122 
COMPS,ioos:station:USF.COMPS:C10:1,2009-10-03T04:40:00Z,27.1690,-82.9260,26.37,1111122 
COMPS,ioos:station:USF.COMPS:C10:1,2009-10-03T05:00:00Z,27.1690,-82.9260,26.33,1111122 
COMPS,ioos:station:USF.COMPS:C10:1,2009-10-03T05:20:00Z,27.1690,-82.9260,26.3,1111122 
COMPS,ioos:station:USF.COMPS:C10:1,2009-10-03T05:40:00Z,27.1690,-82.9260,26.32,1111122 
COMPS,ioos:station:USF.COMPS:C10:1,2009-10-03T06:00:00Z,27.1690,-82.9260,26.25,1111122 
COMPS,ioos:station:USF.COMPS:C10:1,2009-10-03T06:20:00Z,27.1690,-82.9260,26.25,1111122 
COMPS,ioos:station:USF.COMPS:C10:1,2009-10-03T06:40:00Z,27.1690,-82.9260,26.14,1111122 
COMPS,ioos:station:USF.COMPS:C10:1,2009-10-03T07:00:00Z,27.1690,-82.9260,26.06,1111122 
COMPS,ioos:station:USF.COMPS:C10:1,2009-10-03T07:20:00Z,27.1690,-82.9260,26.02,1111122 
COMPS,ioos:station:USF.COMPS:C10:1,2009-10-03T07:40:00Z,27.1690,-82.9260,26.06,1111122 
COMPS,ioos:station:USF.COMPS:C10:1,2009-10-03T08:00:00Z,27.1690,-82.9260,25.99,1111122 
COMPS,ioos:station:USF.COMPS:C10:1,2009-10-03T08:20:00Z,27.1690,-82.9260,25.89,1111122 
COMPS,ioos:station:USF.COMPS:C10:1,2009-10-03T08:40:00Z,27.1690,-82.9260,25.88,1111122 
COMPS,ioos:station:USF.COMPS:C10:1,2009-10-03T09:00:00Z,27.1690,-82.9260,25.9,1111122 
COMPS,ioos:station:USF.COMPS:C10:1,2009-10-03T09:20:00Z,27.1690,-82.9260,25.85,1111122 
COMPS,ioos:station:USF.COMPS:C10:1,2009-10-03T09:40:00Z,27.1690,-82.9260,25.96,1111122 
COMPS,ioos:station:USF.COMPS:C10:1,2009-10-03T10:00:00Z,27.1690,-82.9260,25.86,1111122 
COMPS,ioos:station:USF.COMPS:C10:1,2009-10-03T10:20:00Z,27.1690,-82.9260,25.9,1111122 
COMPS,ioos:station:USF.COMPS:C10:1,2009-10-03T10:40:00Z,27.1690,-82.9260,25.86,1111122 
COMPS,ioos:station:USF.COMPS:C10:1,2009-10-03T11:00:00Z,27.1690,-82.9260,25.95,1111122 
COMPS,ioos:station:USF.COMPS:C10:1,2009-10-03T11:20:00Z,27.1690,-82.9260,25.75,1111122 
COMPS,ioos:station:USF.COMPS:C10:1,2009-10-03T11:40:00Z,27.1690,-82.9260,25.78,1111122 
COMPS,ioos:station:USF.COMPS:C10:1,2009-10-03T12:00:00Z,27.1690,-82.9260,25.85,1111122 
COMPS,ioos:station:USF.COMPS:C10:1,2009-10-03T12:20:00Z,27.1690,-82.9260,25.9,1111122 
COMPS,ioos:station:USF.COMPS:C10:1,2009-10-03T12:40:00Z,27.1690,-82.9260,26.0,1111122 
COMPS,ioos:station:USF.COMPS:C10:1,2009-10-03T13:00:00Z,27.1690,-82.9260,26.14,1111122 
COMPS,ioos:station:USF.COMPS:C10:1,2009-10-03T13:20:00Z,27.1690,-82.9260,26.09,1111122 
COMPS,ioos:station:USF.COMPS:C10:1,2009-10-03T13:40:00Z,27.1690,-82.9260,26.18,1111122 
COMPS,ioos:station:USF.COMPS:C10:1,2009-10-03T14:00:00Z,27.1690,-82.9260,26.1,1111122 
COMPS,ioos:station:USF.COMPS:C10:1,2009-10-03T14:20:00Z,27.1690,-82.9260,26.19,1111122 
COMPS,ioos:station:USF.COMPS:C10:1,2009-10-03T14:40:00Z,27.1690,-82.9260,26.15,1111122 
COMPS,ioos:station:USF.COMPS:C10:1,2009-10-03T15:00:00Z,27.1690,-82.9260,26.18,1111122 
COMPS,ioos:station:USF.COMPS:C10:1,2009-10-03T15:20:00Z,27.1690,-82.9260,26.15,1111122 
COMPS,ioos:station:USF.COMPS:C10:1,2009-10-03T15:40:00Z,27.1690,-82.9260,26.09,1111122 
COMPS,ioos:station:USF.COMPS:C10:1,2009-10-03T16:00:00Z,27.1690,-82.9260,26.12,1111122 
COMPS,ioos:station:USF.COMPS:C10:1,2009-10-03T16:20:00Z,27.1690,-82.9260,26.17,1111122 
COMPS,ioos:station:USF.COMPS:C10:1,2009-10-03T16:40:00Z,27.1690,-82.9260,26.12,1111122 
COMPS,ioos:station:USF.COMPS:C10:1,2009-10-03T17:00:00Z,27.1690,-82.9260,26.22,1111122 
COMPS,ioos:station:USF.COMPS:C10:1,2009-10-03T17:20:00Z,27.1690,-82.9260,26.3,1111122 
COMPS,ioos:station:USF.COMPS:C10:1,2009-10-03T17:40:00Z,27.1690,-82.9260,26.28,1111122 
COMPS,ioos:station:USF.COMPS:C10:1,2009-10-03T18:00:00Z,27.1690,-82.9260,26.23,1111122 
COMPS,ioos:station:USF.COMPS:C10:1,2009-10-03T18:20:00Z,27.1690,-82.9260,26.3,1111122 
COMPS,ioos:station:USF.COMPS:C10:1,2009-10-03T18:40:00Z,27.1690,-82.9260,26.36,1111122 
COMPS,ioos:station:USF.COMPS:C10:1,2009-10-03T19:00:00Z,27.1690,-82.9260,26.29,1111122 
COMPS,ioos:station:USF.COMPS:C10:1,2009-10-03T19:20:00Z,27.1690,-82.9260,26.3,1111122 
COMPS,ioos:station:USF.COMPS:C10:1,2009-10-03T19:40:00Z,27.1690,-82.9260,26.31,1111122 
COMPS,ioos:station:USF.COMPS:C10:1,2009-10-03T20:00:00Z,27.1690,-82.9260,26.39,1111122 
COMPS,ioos:station:USF.COMPS:C10:1,2009-10-03T20:20:00Z,27.1690,-82.9260,26.42,1111122 
COMPS,ioos:station:USF.COMPS:C10:1,2009-10-03T20:40:00Z,27.1690,-82.9260,26.44,1111122 
COMPS,ioos:station:USF.COMPS:C10:1,2009-10-03T21:00:00Z,27.1690,-82.9260,26.5,1111122 
COMPS,ioos:station:USF.COMPS:C10:1,2009-10-03T21:20:00Z,27.1690,-82.9260,26.62,1111122 
COMPS,ioos:station:USF.COMPS:C10:1,2009-10-03T21:40:00Z,27.1690,-82.9260,26.68,1111122 
COMPS,ioos:station:USF.COMPS:C10:1,2009-10-03T22:00:00Z,27.1690,-82.9260,26.52,1111122 
COMPS,ioos:station:USF.COMPS:C10:1,2009-10-03T22:20:00Z,27.1690,-82.9260,26.65,1111122 
COMPS,ioos:station:USF.COMPS:C10:1,2009-10-03T22:40:00Z,27.1690,-82.9260,26.43,1111122 
COMPS,ioos:station:USF.COMPS:C10:1,2009-10-03T23:00:00Z,27.1690,-82.9260,26.44,1111122 
COMPS,ioos:station:USF.COMPS:C10:1,2009-10-03T23:20:00Z,27.1690,-82.9260,26.23,1111122 
COMPS,ioos:station:USF.COMPS:C10:1,2009-10-03T23:40:00Z,27.1690,-82.9260,26.25,1111122 
COMPS,ioos:station:USF.COMPS:C10:1,2009-10-04T00:00:00Z,27.1690,-82.9260,26.18,1111122 
COMPS,ioos:station:USF.COMPS:C10:1,2009-10-04T00:20:00Z,27.1690,-82.9260,26.12,1111122 
COMPS,ioos:station:USF.COMPS:C10:1,2009-10-04T00:40:00Z,27.1690,-82.9260,26.08,1111122 
COMPS,ioos:station:USF.COMPS:C10:1,2009-10-04T01:00:00Z,27.1690,-82.9260,26.18,1111122 
COMPS,ioos:station:USF.COMPS:C10:1,2009-10-04T01:20:00Z,27.1690,-82.9260,26.17,1111122 
COMPS,ioos:station:USF.COMPS:C10:1,2009-10-04T01:40:00Z,27.1690,-82.9260,26.22,1111122 
COMPS,ioos:station:USF.COMPS:C10:1,2009-10-04T02:00:00Z,27.1690,-82.9260,26.12,1111122 
COMPS,ioos:station:USF.COMPS:C10:1,2009-10-04T02:20:00Z,27.1690,-82.9260,26.09,1111122 
COMPS,ioos:station:USF.COMPS:C10:1,2009-10-04T02:40:00Z,27.1690,-82.9260,26.08,1111122 
COMPS,ioos:station:USF.COMPS:C10:1,2009-10-04T03:00:00Z,27.1690,-82.9260,26.14,1111122 
COMPS,ioos:station:USF.COMPS:C10:1,2009-10-04T03:20:00Z,27.1690,-82.9260,26.15,1111122 
COMPS,ioos:station:USF.COMPS:C10:1,2009-10-04T03:40:00Z,27.1690,-82.9260,26.15,1111122 
COMPS,ioos:station:USF.COMPS:C10:1,2009-10-04T04:00:00Z,27.1690,-82.9260,26.11,1111122 
COMPS,ioos:station:USF.COMPS:C10:1,2009-10-04T04:20:00Z,27.1690,-82.9260,26.06,1111122 
COMPS,ioos:station:USF.COMPS:C10:1,2009-10-04T04:40:00Z,27.1690,-82.9260,26.14,1111122 
COMPS,ioos:station:USF.COMPS:C10:1,2009-10-04T05:00:00Z,27.1690,-82.9260,26.13,1111122 
COMPS,ioos:station:USF.COMPS:C10:1,2009-10-04T05:20:00Z,27.1690,-82.9260,26.07,1111122 
COMPS,ioos:station:USF.COMPS:C10:1,2009-10-04T05:40:00Z,27.1690,-82.9260,26.07,1111122 
COMPS,ioos:station:USF.COMPS:C10:1,2009-10-04T06:00:00Z,27.1690,-82.9260,26.1,1111122 
COMPS,ioos:station:USF.COMPS:C10:1,2009-10-04T06:20:00Z,27.1690,-82.9260,26.13,1111122 
COMPS,ioos:station:USF.COMPS:C10:1,2009-10-04T06:40:00Z,27.1690,-82.9260,26.08,1111122 
COMPS,ioos:station:USF.COMPS:C10:1,2009-10-04T07:00:00Z,27.1690,-82.9260,26.06,1111122 
COMPS,ioos:station:USF.COMPS:C10:1,2009-10-04T07:20:00Z,27.1690,-82.9260,25.94,1111122 
COMPS,ioos:station:USF.COMPS:C10:1,2009-10-04T07:40:00Z,27.1690,-82.9260,25.89,1111122 
COMPS,ioos:station:USF.COMPS:C10:1,2009-10-04T08:00:00Z,27.1690,-82.9260,25.8,1111122 
COMPS,ioos:station:USF.COMPS:C10:1,2009-10-04T08:20:00Z,27.1690,-82.9260,25.71,1111122 
COMPS,ioos:station:USF.COMPS:C10:1,2009-10-04T08:40:00Z,27.1690,-82.9260,25.61,1111122 
COMPS,ioos:station:USF.COMPS:C10:1,2009-10-04T09:00:00Z,27.1690,-82.9260,25.62,1111122 
COMPS,ioos:station:USF.COMPS:C10:1,2009-10-04T09:20:00Z,27.1690,-82.9260,25.58,1111122 
COMPS,ioos:station:USF.COMPS:C10:1,2009-10-04T09:40:00Z,27.1690,-82.9260,25.36,1111122 
COMPS,ioos:station:USF.COMPS:C10:1,2009-10-04T10:00:00Z,27.1690,-82.9260,25.35,1111122 
COMPS,ioos:station:USF.COMPS:C10:1,2009-10-04T10:20:00Z,27.1690,-82.9260,25.42,1111122 
COMPS,ioos:station:USF.COMPS:C10:1,2009-10-04T10:40:00Z,27.1690,-82.9260,25.52,1111122 
COMPS,ioos:station:USF.COMPS:C10:1,2009-10-04T11:00:00Z,27.1690,-82.9260,25.46,1111122 
COMPS,ioos:station:USF.COMPS:C10:1,2009-10-04T11:20:00Z,27.1690,-82.9260,25.42,1111122 
COMPS,ioos:station:USF.COMPS:C10:1,2009-10-04T11:40:00Z,27.1690,-82.9260,25.5,1111122 
COMPS,ioos:station:USF.COMPS:C10:1,2009-10-04T12:00:00Z,27.1690,-82.9260,25.69,1111122 
COMPS,ioos:station:USF.COMPS:C10:1,2009-10-04T12:20:00Z,27.1690,-82.9260,25.8,1111122 
COMPS,ioos:station:USF.COMPS:C10:1,2009-10-04T12:40:00Z,27.1690,-82.9260,25.93,1111122 
COMPS,ioos:station:USF.COMPS:C10:1,2009-10-04T13:00:00Z,27.1690,-82.9260,25.93,1111122 
COMPS,ioos:station:USF.COMPS:C10:1,2009-10-04T13:20:00Z,27.1690,-82.9260,26.06,1111122 
COMPS,ioos:station:USF.COMPS:C10:1,2009-10-04T13:40:00Z,27.1690,-82.9260,26.25,1111122 
COMPS,ioos:station:USF.COMPS:C10:1,2009-10-04T14:00:00Z,27.1690,-82.9260,26.23,1111122 
COMPS,ioos:station:USF.COMPS:C10:1,2009-10-04T14:20:00Z,27.1690,-82.9260,26.31,1111122 
COMPS,ioos:station:USF.COMPS:C10:1,2009-10-04T14:40:00Z,27.1690,-82.9260,26.37,1111122 
COMPS,ioos:station:USF.COMPS:C10:1,2009-10-04T15:00:00Z,27.1690,-82.9260,26.51,1111122 
COMPS,ioos:station:USF.COMPS:C10:1,2009-10-04T15:20:00Z,27.1690,-82.9260,26.57,1111122 
COMPS,ioos:station:USF.COMPS:C10:1,2009-10-04T15:40:00Z,27.1690,-82.9260,26.67,1111122 
COMPS,ioos:station:USF.COMPS:C10:1,2009-10-04T16:00:00Z,27.1690,-82.9260,26.72,1111122 
COMPS,ioos:station:USF.COMPS:C10:1,2009-10-04T16:20:00Z,27.1690,-82.9260,26.77,1111122 
COMPS,ioos:station:USF.COMPS:C10:1,2009-10-04T16:40:00Z,27.1690,-82.9260,26.91,1111122 
COMPS,ioos:station:USF.COMPS:C10:1,2009-10-04T17:00:00Z,27.1690,-82.9260,27.24,1111122 
COMPS,ioos:station:USF.COMPS:C10:1,2009-10-04T17:20:00Z,27.1690,-82.9260,27.26,1111122 
COMPS,ioos:station:USF.COMPS:C10:1,2009-10-04T17:40:00Z,27.1690,-82.9260,27.36,1111122 
COMPS,ioos:station:USF.COMPS:C10:1,2009-10-04T18:00:00Z,27.1690,-82.9260,27.49,1111122 
COMPS,ioos:station:USF.COMPS:C10:1,2009-10-04T18:20:00Z,27.1690,-82.9260,27.54,1111122 
COMPS,ioos:station:USF.COMPS:C10:1,2009-10-04T18:40:00Z,27.1690,-82.9260,27.52,1111122 
COMPS,ioos:station:USF.COMPS:C10:1,2009-10-04T19:00:00Z,27.1690,-82.9260,27.55,1111122 
COMPS,ioos:station:USF.COMPS:C10:1,2009-10-04T19:20:00Z,27.1690,-82.9260,27.74,1111122 
COMPS,ioos:station:USF.COMPS:C10:1,2009-10-04T19:40:00Z,27.1690,-82.9260,27.9,1111122 
COMPS,ioos:station:USF.COMPS:C10:1,2009-10-04T20:00:00Z,27.1690,-82.9260,28.03,1111122 
COMPS,ioos:station:USF.COMPS:C10:1,2009-10-04T20:20:00Z,27.1690,-82.9260,28.15,1111122 
COMPS,ioos:station:USF.COMPS:C10:1,2009-10-04T20:40:00Z,27.1690,-82.9260,28.25,1111122 
COMPS,ioos:station:USF.COMPS:C10:1,2009-10-04T21:00:00Z,27.1690,-82.9260,28.34,1111122 
COMPS,ioos:station:USF.COMPS:C10:1,2009-10-04T21:20:00Z,27.1690,-82.9260,28.28,1111122 
COMPS,ioos:station:USF.COMPS:C10:1,2009-10-04T21:40:00Z,27.1690,-82.9260,28.36,1111122 
COMPS,ioos:station:USF.COMPS:C10:1,2009-10-04T22:00:00Z,27.1690,-82.9260,28.45,1111122 
COMPS,ioos:station:USF.COMPS:C10:1,2009-10-04T22:20:00Z,27.1690,-82.9260,28.49,1111122 
COMPS,ioos:station:USF.COMPS:C10:1,2009-10-04T22:40:00Z,27.1690,-82.9260,28.37,1111122 
COMPS,ioos:station:USF.COMPS:C10:1,2009-10-04T23:00:00Z,27.1690,-82.9260,28.25,1111122 
COMPS,ioos:station:USF.COMPS:C10:1,2009-10-04T23:20:00Z,27.1690,-82.9260,28.09,1111122 
COMPS,ioos:station:USF.COMPS:C10:1,2009-10-04T23:40:00Z,27.1690,-82.9260,28.04,1111122 
COMPS,ioos:station:USF.COMPS:C10:1,2009-10-05T00:00:00Z,27.1690,-82.9260,28.06,1111122 
COMPS,ioos:station:USF.COMPS:C10:1,2009-10-05T00:20:00Z,27.1690,-82.9260,28.12,1111122 
COMPS,ioos:station:USF.COMPS:C10:1,2009-10-05T00:40:00Z,27.1690,-82.9260,28.06,1111122 
COMPS,ioos:station:USF.COMPS:C10:1,2009-10-05T01:00:00Z,27.1690,-82.9260,28.07,1111122 
COMPS,ioos:station:USF.COMPS:C10:1,2009-10-05T01:20:00Z,27.1690,-82.9260,28.04,1111122 
COMPS,ioos:station:USF.COMPS:C10:1,2009-10-05T01:40:00Z,27.1690,-82.9260,28.02,1111122 
COMPS,ioos:station:USF.COMPS:C10:1,2009-10-05T02:00:00Z,27.1690,-82.9260,27.99,1111122 
COMPS,ioos:station:USF.COMPS:C10:1,2009-10-05T02:20:00Z,27.1690,-82.9260,28.06,1111122 
COMPS,ioos:station:USF.COMPS:C10:1,2009-10-05T02:40:00Z,27.1690,-82.9260,28.01,1111122 
COMPS,ioos:station:USF.COMPS:C10:1,2009-10-05T03:00:00Z,27.1690,-82.9260,28.12,1111122 
COMPS,ioos:station:USF.COMPS:C10:1,2009-10-05T03:20:00Z,27.1690,-82.9260,28.16,1111122 
COMPS,ioos:station:USF.COMPS:C10:1,2009-10-05T03:40:00Z,27.1690,-82.9260,28.15,1111122 
COMPS,ioos:station:USF.COMPS:C10:1,2009-10-05T05:00:00Z,27.1690,-82.9260,28.16,1111122 
COMPS,ioos:station:USF.COMPS:C10:1,2009-10-05T05:20:00Z,27.1690,-82.9260,27.96,1111122 
COMPS,ioos:station:USF.COMPS:C10:1,2009-10-05T05:40:00Z,27.1690,-82.9260,27.83,1111122 
COMPS,ioos:station:USF.COMPS:C10:1,2009-10-05T06:00:00Z,27.1690,-82.9260,27.84,1111122 
COMPS,ioos:station:USF.COMPS:C10:1,2009-10-05T06:20:00Z,27.1690,-82.9260,27.78,1111122 
COMPS,ioos:station:USF.COMPS:C10:1,2009-10-05T06:40:00Z,27.1690,-82.9260,27.82,1111122 
COMPS,ioos:station:USF.COMPS:C10:1,2009-10-05T07:00:00Z,27.1690,-82.9260,27.8,1111122 
COMPS,ioos:station:USF.COMPS:C10:1,2009-10-05T07:20:00Z,27.1690,-82.9260,27.23,1111122 
COMPS,ioos:station:USF.COMPS:C10:1,2009-10-05T07:40:00Z,27.1690,-82.9260,27.28,1111122 
COMPS,ioos:station:USF.COMPS:C10:1,2009-10-05T08:00:00Z,27.1690,-82.9260,26.17,1111122 
COMPS,ioos:station:USF.COMPS:C10:1,2009-10-05T08:20:00Z,27.1690,-82.9260,27.02,1111122 
COMPS,ioos:station:USF.COMPS:C10:1,2009-10-05T08:40:00Z,27.1690,-82.9260,27.37,1111122 
COMPS,ioos:station:USF.COMPS:C10:1,2009-10-05T09:00:00Z,27.1690,-82.9260,27.41,1111122 
COMPS,ioos:station:USF.COMPS:C10:1,2009-10-05T10:20:00Z,27.1690,-82.9260,27.73,1111122 
COMPS,ioos:station:USF.COMPS:C10:1,2009-10-05T10:40:00Z,27.1690,-82.9260,27.73,1111122 
COMPS,ioos:station:USF.COMPS:C10:1,2009-10-05T11:00:00Z,27.1690,-82.9260,27.73,1111122 
COMPS,ioos:station:USF.COMPS:C10:1,2009-10-05T11:20:00Z,27.1690,-82.9260,27.88,1111122 
COMPS,ioos:station:USF.COMPS:C10:1,2009-10-05T11:40:00Z,27.1690,-82.9260,27.83,1111122 
COMPS,ioos:station:USF.COMPS:C10:1,2009-10-05T12:00:00Z,27.1690,-82.9260,27.9,1111122 
COMPS,ioos:station:USF.COMPS:C10:1,2009-10-05T12:20:00Z,27.1690,-82.9260,27.89,1111122 
COMPS,ioos:station:USF.COMPS:C10:1,2009-10-05T12:40:00Z,27.1690,-82.9260,27.99,1111122 
COMPS,ioos:station:USF.COMPS:C10:1,2009-10-05T13:00:00Z,27.1690,-82.9260,27.93,1111122 
COMPS,ioos:station:USF.COMPS:C10:1,2009-10-05T13:20:00Z,27.1690,-82.9260,27.98,1111122 
COMPS,ioos:station:USF.COMPS:C10:1,2009-10-05T13:40:00Z,27.1690,-82.9260,28.05,1111122 